Location: Kaseke
(18.0171°S, 31.0526°E)
Time: 12:26:37
(UTC+00:00)

ARIANE 5 R/B - Pass Details

Date: 14 July 2020
Orbit: 220 x 24580 km, 6.3° (Epoch: 06 August)

Event Time Altitude Azimuth Distance (km) Brightness Sun altitude
Exits shadow 03:28:39 - 311° (NW) 2,307 4.2 -14.0°
Reaches altitude 10° 03:29:30 10° 319° (NW) 2,048 4.0 -13.8°
Maximum altitude 03:33:38 32° 25° (NNE) 2,065 4.7 -12.8°
Drops below altitude 10° 03:50:49 10° 81° (E) 8,519 8.9 -9.0°
Sets 04:12:45 0° 87° (E) 15,036 10.3 -4.1°
